Погода в Алагоиньясе

Бразилия     12°07′55″S   38°25′14″W
темп.,
°C
ветер,
м/с
пор.,
м/с
влажн.,
%
обл.,
%
осадки,
мм/ч
давл.,
гПа
погр.,
м
27 февраля, сб
сб2700:00+21в25951 0.0 1012145
03:00+21в129734 0.0 101137
06:00+21св019634 0.0 101223
09:00+28вюв356540 1.3 10131022
12:00+29в466479 5.9 10121170
15:00+29вюв456173 10.8 10091254
18:00+24вюв498139 1.6 1010396
21:00+22юв289742 1.6 1012292
28 февраля, вс
вс2800:00+21вюв129830 0.0 101228
03:00+20ююз119842 0.0 101023
06:00+21вюв0097100 0.0 101123
09:00+28вюв235963 0.0 10131100
12:00+30вюв235268 0.1 10111513
15:00+30ююв455173 0.4 10081231
18:00+26вюв496210 0.0 1009463
21:00+22вюв268738 0.0 1011180
1 марта, пн
пн100:00+21вюв129571 0.0 101050
03:00+21вюв019642 0.0 100923
06:00+21зюз019641 0.0 101023
09:00+26ююв247834 1.1 1012547
12:00+28вюв577273 3.4 1011956
15:00+27вюв687387 7.6 1009947
18:00+24вюв4108970 1.1 1010662
21:00+22вюв299653 1.1 1012348
2 марта, вт
вт200:00+21юв28979 0.1 1012272
03:00+20вюв12956 0.2 101137
06:00+20вюв11937 0.0 101223
09:00+27вюв35594 0.0 10141026
12:00+31вюв454524 0.0 10131796
15:00+31юв563340 0.0 10111899
18:00+24вюв38680 0.0 1012290
21:00+21вюв25860 0.0 1014151
3 марта, ср
ср300:00+20в12935 0.0 101425
03:00+19юв01963 0.0 101323
06:00+20ю11951 0.0 101423
09:00+25ю247646 0.0 1016423
12:00+26ююв2468100 0.0 1015842
15:00+30юв465369 0.1 10131476
18:00+25вюв387346 0.0 1013428
21:00+22вюв269434 0.0 1014222